Regional Weather Roundup
Issued by NWS Albany, NY

Home | Current Version | Previous Version | Text Only | Print | Product List | Glossary On
Versions: 1 2 3 4 5 6 7 8 9 10 11 12 13 14 15 16 17 18 19 20 21 22 23 24 25 26 27 28 29 30 31 32 33 34 35 36 37 38 39 40 41 42 43 44 45 46 47 48 49 50
000
ASUS41 KALY 210810
RWRALY

NEW YORK STATE HOURLY WEATHER ROUNDUP
NATIONAL WEATHER SERVICE ALBANY NY
400 AM EDT TUE MAY 21 2019

NOTE: "FAIR" INDICATES FEW OR NO CLOUDS BELOW 12,000 FEET WITH NO
SIGNIFICANT WEATHER AND/OR NO OBSTRUCTIONS TO VISIBILITY.

NYZ032-033-038>043-046>054-057>066-NYZ062>081-082-084-210900-
EAST


CITY           SKY/WX    TMP DP  RH WIND       PRES   REMARKS
ALBANY         MOCLDY    52  38  58 W18G30    29.86F
GLENS FALLS    CLOUDY    53  39  59 W6        29.81S
POUGHKEEPSIE   CLOUDY    59  42  53 W7        29.83R
NEWBURGH       MOCLDY    57  45  62 NW12      29.85S
MONTGOMERY     CLOUDY    57  41  55 NW16G23   29.85S
WHITE PLAINS   FAIR      58  41  53 NW17G26   29.83R
ISLIP          FAIR      61  45  55 NW13G22   29.81R
NEW YORK CITY  FAIR      63  43  48 NW17      29.83R
CENTRAL PARK   FAIR      62  42  47 W9G18     29.87R
$$

NYZ005>009-017-018-044>046-055-056-210900-
CENTRAL


CITY           SKY/WX    TMP DP  RH WIND       PRES   REMARKS
FULTON         FAIR      44  38  79 W10       29.98R
SYRACUSE       MOCLDY    47  40  76 W13       29.97R
ROME           CLOUDY    47  41  80 W10       29.94R
ELMIRA         LGT RAIN  48  40  73 NW5       30.00R
BINGHAMTON     CLOUDY    43  38  82 NW12G22   29.93S
MONTICELLO     CLOUDY    48  41  76 NW14G24   29.89R
$$

NYZ026>034-041>043-087-210900-
NORTH


CITY           SKY/WX    TMP DP  RH WIND       PRES   REMARKS
WATERTOWN      FAIR      47  40  76 W10       29.93R
FORT DRUM      NOT AVBL
OGDENSBURG     CLOUDY    48  39  71 W12       29.85R
MASSENA        MOCLDY    48  39  71 W12       29.86R
SARANAC LAKE   CLOUDY    41  38  89 W8G17     29.81R
PLATTSBURGH    CLOUDY    50  40  68 VRB6      29.78F
$$

NYZ001>004-010>016-019>021-085-210900-
WEST


CITY           SKY/WX    TMP DP  RH WIND       PRES   REMARKS
NIAGARA FALLS  FAIR      40  37  89 SW5       30.05S
BUFFALO        FAIR      43  38  82 W7        30.06R
DUNKIRK        FAIR      44  39  82 W3        30.08F
JAMESTOWN      CLOUDY    40  38  93 N7        30.07S
WELLSVILLE     CLOUDY    41  38  89 N9        30.03R
ROCHESTER      FAIR      46  39  76 W12G21    30.03R
PENN YAN       FAIR      45  38  76 W7G17     30.01R
$$

             KEY
       WCI = WIND CHILL INDEX
       VSB = VISIBILITY
       HX  = HEAT INDEX
$$



USA.gov is the U.S. government's official web portal to all federal, state and local government web resources and services.